EST,Max TemperatureF,Mean TemperatureF,Min TemperatureF,Max Dew PointF,MeanDew PointF,Min DewpointF,Max Humidity, Mean Humidity, Min Humidity, Max Sea Level PressureIn, Mean Sea Level PressureIn, Min Sea Level PressureIn, Max VisibilityMiles, Mean VisibilityMiles, Min VisibilityMiles, Max Wind SpeedMPH, Mean Wind SpeedMPH, Max Gust SpeedMPH,PrecipitationIn, CloudCover, Events, WindDirDegrees
2013-2-1,43,32,21,31,14,7,78,59,39,30.36,30.15,29.89,10,9,2,30,13,47,T,2,Snow,337
2013-2-2,43,32,20,31,19,8,89,59,29,30.35,30.19,30.01,10,10,9,17,7,23,T,5,Snow,187
2013-2-3,48,39,29,33,25,19,89,62,34,30.03,29.95,29.86,10,9,2,24,10,35,0.01,5,Snow,346
2013-2-4,53,39,25,24,20,18,75,52,28,30.12,30.03,29.98,10,10,10,21,8,29,0.00,2,,182
2013-2-5,57,44,30,34,29,24,85,63,40,30.01,29.95,29.89,10,10,10,16,3,21,0.00,3,,341
2013-2-6,59,44,29,31,27,20,92,58,23,30.22,30.13,30.01,10,10,10,13,5,15,0.00,0,,346
2013-2-7,44,39,33,41,36,27,100,75,49,30.23,30.10,29.98,10,7,2,7,1,9,0.41,7,Rain,210
2013-2-8,52,43,34,43,37,25,100,72,44,30.13,29.96,29.91,10,8,0,26,10,37,T,6,Fog-Rain,339
2013-2-9,58,44,30,27,17,5,75,45,14,30.32,30.25,30.12,10,10,10,28,8,35,0.00,0,,352
2013-2-10,50,41,32,43,30,20,100,67,34,30.38,30.28,30.13,10,9,5,17,6,25,0.43,4,Rain,152
2013-2-11,59,51,43,53,46,30,100,70,39,30.14,30.05,29.98,10,9,2,16,5,22,0.04,6,Rain,142
2013-2-12,52,46,40,38,27,23,86,59,32,30.10,30.03,29.93,10,10,8,28,9,35,0.09,3,Rain,341
2013-2-13,55,45,35,43,37,29,100,75,50,29.91,29.76,29.62,10,7,2,22,8,31,0.20,6,Rain,158
2013-2-14,54,42,30,29,27,25,85,59,32,30.05,29.98,29.89,10,10,10,18,5,25,0.00,1,,346
2013-2-15,58,42,26,36,29,24,92,61,30,30.11,30.03,29.93,10,10,10,23,7,35,T,4,Rain,329
2013-2-16,35,29,23,26,19,7,78,61,43,30.01,29.92,29.86,10,9,2,33,15,43,T,7,Snow,336
2013-2-17,37,29,21,12,6,4,60,42,24,30.25,30.13,30.02,10,10,10,29,15,40,0.00,1,,330
2013-2-18,53,36,18,23,18,14,84,57,29,30.36,30.27,30.14,10,10,10,18,6,23,0.00,1,,166
2013-2-19,55,45,34,39,28,10,92,60,28,30.13,30.00,29.86,10,8,2,25,11,36,0.10,5,Rain-Snow,204
2013-2-20,46,37,28,12,7,0,46,31,16,30.14,30.09,30.03,10,10,10,22,14,29,0.00,0,,345
2013-2-21,60,42,24,37,14,3,92,51,10,30.21,30.14,30.06,10,10,5,15,5,20,0.23,1,Rain,332
2013-2-22,40,38,35,38,35,32,100,93,85,30.24,30.16,30.06,10,6,1,14,7,20,0.35,8,Rain,163
2013-2-23,53,45,37,49,42,37,100,92,83,30.06,29.92,29.83,10,8,2,10,3,13,0.17,8,Rain,324
2013-2-24,56,46,36,41,30,21,92,59,26,30.04,29.95,29.85,10,10,10,21,9,26,0.00,0,,347
2013-2-25,46,38,30,32,26,23,92,69,45,30.12,30.04,30.00,10,9,3,10,5,14,T,3,Rain,172
2013-2-26,39,36,32,37,34,30,100,96,92,29.98,29.74,29.57,10,4,0,15,7,22,1.54,8,Fog-Rain-Snow,181
2013-2-27,57,44,31,35,31,21,100,66,32,29.78,29.70,29.63,10,8,0,15,7,20,T,3,Fog,323
2013-2-28,43,38,32,33,24,21,89,66,43,29.91,29.80,29.70,10,10,10,21,11,30,0.00,7,,341